RYR2580 EBCI-LFMU

Flight info

Callsign RYR2580
Flight time 1h 17m
Altitude 33000
Route CIV Y50 REM B3 VATRI G40 TRO B373 MOU A27 MEN J27 AFRIC
Aircraft B738/M-SDE2E3FGHIRWXY/LB1

Departure

Time 2026-04-22 18:44
Airport Brussels South Charleroi Airport (EBCI)

Arrival

Time 2026-04-22 20:01
Airport Béziers Vias airport (LFMU)
Time Latitude Longitude Altitude Speed Heading
2026-04-22 18:18 50.46852 4.47043 612 ft 0 kts 335°
2026-04-22 18:32 50.46822 4.47065 625 ft 5 kts 333°
2026-04-22 18:33 50.46804 4.47082 623 ft 2 kts 316°
2026-04-22 18:33 50.46797 4.47096 619 ft 2 kts 279°
2026-04-22 18:33 50.46797 4.47114 621 ft 2 kts 253°
2026-04-22 18:33 50.46801 4.47130 620 ft 2 kts 246°
2026-04-22 18:34 50.46803 4.47138 620 ft 0 kts 246°
2026-04-22 18:37 50.46803 4.47137 620 ft 0 kts 246°
2026-04-22 18:37 50.46799 4.47121 623 ft 5 kts 246°
2026-04-22 18:37 50.46760 4.46989 615 ft 14 kts 245°
2026-04-22 18:38 50.46719 4.46849 616 ft 11 kts 246°
2026-04-22 18:38 50.46667 4.46788 616 ft 10 kts 174°
2026-04-22 18:38 50.46605 4.46780 618 ft 10 kts 220°
2026-04-22 18:39 50.46528 4.46529 614 ft 18 kts 245°
2026-04-22 18:39 50.46471 4.46334 619 ft 21 kts 245°
2026-04-22 18:39 50.46407 4.46108 623 ft 24 kts 246°
2026-04-22 18:39 50.46334 4.45860 616 ft 26 kts 246°
2026-04-22 18:40 50.46262 4.45613 621 ft 24 kts 245°
2026-04-22 18:40 50.46195 4.45382 612 ft 23 kts 245°
2026-04-22 18:40 50.46130 4.45160 617 ft 22 kts 245°
2026-04-22 18:40 50.46070 4.44951 617 ft 17 kts 245°
2026-04-22 18:41 50.46027 4.44813 615 ft 10 kts 233°
2026-04-22 18:41 50.45989 4.44774 621 ft 2 kts 197°
2026-04-22 18:42 50.45982 4.44772 618 ft 6 kts 191°
2026-04-22 18:42 50.45909 4.44799 621 ft 12 kts 156°
2026-04-22 18:42 50.45864 4.44839 625 ft 4 kts 117°
2026-04-22 18:42 50.45872 4.44888 618 ft 5 kts 66°
2026-04-22 18:43 50.45888 4.44944 620 ft 8 kts 65°
2026-04-22 18:43 50.45988 4.45286 615 ft 70 kts 65°
2026-04-22 18:43 50.46286 4.46315 617 ft 134 kts 65°
2026-04-22 18:43 50.46748 4.47825 952 ft 160 kts 65°
2026-04-22 18:44 50.47227 4.49369 1910 ft 154 kts 56°
2026-04-22 18:44 50.48156 4.50233 2691 ft 163 kts 18°
2026-04-22 18:44 50.49194 4.50862 3371 ft 166 kts 45°
2026-04-22 18:44 50.49840 4.52344 4069 ft 165 kts 64°
2026-04-22 18:45 50.50516 4.54025 4319 ft 197 kts 59°
2026-04-22 18:45 50.51355 4.55895 4519 ft 222 kts 57°
2026-04-22 18:45 50.52323 4.57951 4772 ft 248 kts 56°
2026-04-22 18:45 50.53551 4.59965 5355 ft 264 kts 35°
2026-04-22 18:46 50.54660 4.60760 5934 ft 268 kts 18°
2026-04-22 18:46 50.56532 4.60924 6782 ft 276 kts 352°
2026-04-22 18:46 50.58300 4.59709 7549 ft 285 kts 324°
2026-04-22 18:46 50.59571 4.57296 8305 ft 293 kts 297°
2026-04-22 18:47 50.60052 4.54178 9062 ft 298 kts 269°
2026-04-22 18:47 50.59852 4.52036 9567 ft 300 kts 251°
2026-04-22 18:47 50.58947 4.49075 10316 ft 303 kts 238°
2026-04-22 18:47 50.57812 4.46214 10736 ft 319 kts 236°
2026-04-22 18:48 50.56556 4.43191 10975 ft 339 kts 235°
2026-04-22 18:48 50.55247 4.40037 11530 ft 348 kts 236°
2026-04-22 18:48 50.53933 4.36827 12267 ft 351 kts 236°
2026-04-22 18:48 50.52617 4.33571 13014 ft 355 kts 237°
2026-04-22 18:49 50.51296 4.30276 13754 ft 360 kts 237°
2026-04-22 18:49 50.49958 4.26921 14462 ft 365 kts 237°
2026-04-22 18:49 50.48603 4.23519 15130 ft 370 kts 237°
2026-04-22 18:49 50.47230 4.20071 15842 ft 374 kts 238°
2026-04-22 18:50 50.45841 4.16585 16535 ft 379 kts 238°
2026-04-22 18:50 50.44435 4.13060 17211 ft 384 kts 238°
2026-04-22 18:50 50.43011 4.09495 17899 ft 389 kts 238°
2026-04-22 18:50 50.41565 4.05880 18581 ft 393 kts 238°
2026-04-22 18:51 50.40102 4.02229 19200 ft 396 kts 238°
2026-04-22 18:51 50.38633 3.98564 19886 ft 398 kts 238°
2026-04-22 18:51 50.37157 3.94892 20580 ft 399 kts 238°
2026-04-22 18:51 50.35457 3.91457 21172 ft 403 kts 221°
2026-04-22 18:52 50.33103 3.89094 21786 ft 403 kts 200°
2026-04-22 18:52 50.30395 3.88021 22405 ft 403 kts 182°
2026-04-22 18:52 50.27601 3.88210 22962 ft 404 kts 172°
2026-04-22 18:52 50.24797 3.88725 23489 ft 408 kts 171°
2026-04-22 18:53 50.22000 3.89272 23972 ft 413 kts 171°
2026-04-22 18:53 50.19094 3.89819 24415 ft 417 kts 172°
2026-04-22 18:53 50.16238 3.90324 24862 ft 421 kts 172°
2026-04-22 18:53 50.13318 3.90818 25290 ft 424 kts 173°
2026-04-22 18:54 50.10364 3.91310 25719 ft 428 kts 173°
2026-04-22 18:54 50.07393 3.91806 26129 ft 432 kts 173°
2026-04-22 18:54 50.04392 3.92313 26547 ft 436 kts 173°
2026-04-22 18:54 50.01366 3.92827 26959 ft 439 kts 173°
2026-04-22 18:55 49.98314 3.93345 27359 ft 443 kts 173°
2026-04-22 18:55 49.95238 3.93865 27751 ft 446 kts 173°
2026-04-22 18:55 49.92148 3.94388 28143 ft 450 kts 174°
2026-04-22 18:55 49.89027 3.94914 28527 ft 453 kts 174°
2026-04-22 18:56 49.85883 3.95444 28908 ft 456 kts 174°
2026-04-22 18:56 49.82720 3.95976 29332 ft 458 kts 174°
2026-04-22 18:56 49.79557 3.96507 29876 ft 456 kts 174°
2026-04-22 18:56 49.76404 3.97037 30408 ft 455 kts 174°
2026-04-22 18:57 49.73252 3.97568 30808 ft 456 kts 174°
2026-04-22 18:57 49.70098 3.98100 31201 ft 456 kts 174°
2026-04-22 18:57 49.66956 3.98629 31631 ft 455 kts 175°
2026-04-22 18:57 49.63812 3.99158 32033 ft 454 kts 175°
2026-04-22 18:58 49.60667 3.99685 32401 ft 455 kts 175°
2026-04-22 18:58 49.57519 4.00213 32780 ft 455 kts 175°
2026-04-22 18:58 49.54372 4.00738 33162 ft 455 kts 175°
2026-04-22 18:58 49.51211 4.01262 33264 ft 460 kts 175°
2026-04-22 18:59 49.44820 4.02321 33243 ft 460 kts 175°
2026-04-22 18:59 49.38512 4.03366 33241 ft 454 kts 175°
2026-04-22 19:00 49.32211 4.04356 33246 ft 457 kts 176°
2026-04-22 19:00 49.25906 4.04732 33250 ft 457 kts 182°
2026-04-22 19:01 49.19579 4.04774 33241 ft 460 kts 182°
2026-04-22 19:01 49.13172 4.04907 33241 ft 461 kts 182°
2026-04-22 19:02 49.06752 4.05079 33237 ft 462 kts 182°
2026-04-22 19:02 49.00327 4.05252 33238 ft 461 kts 182°
2026-04-22 19:03 48.93917 4.05420 33239 ft 461 kts 182°
2026-04-22 19:03 48.87499 4.05587 33239 ft 461 kts 182°
2026-04-22 19:04 48.81087 4.05754 33236 ft 461 kts 182°
2026-04-22 19:04 48.74678 4.05893 33231 ft 460 kts 183°
2026-04-22 19:05 48.68274 4.05993 33234 ft 460 kts 183°
2026-04-22 19:05 48.61874 4.06099 33239 ft 461 kts 183°
2026-04-22 19:06 48.55469 4.06024 33225 ft 458 kts 191°
2026-04-22 19:07 48.46220 4.03140 33214 ft 453 kts 198°
2026-04-22 19:07 48.40054 4.01080 33211 ft 454 kts 198°
2026-04-22 19:08 48.33876 3.99095 33212 ft 455 kts 197°
2026-04-22 19:08 48.27679 3.97123 33210 ft 455 kts 198°
2026-04-22 19:09 48.21444 3.95367 33216 ft 458 kts 194°
2026-04-22 19:09 48.15170 3.94077 33210 ft 458 kts 193°
2026-04-22 19:10 48.08866 3.92766 33209 ft 457 kts 194°
2026-04-22 19:10 48.02574 3.91398 33203 ft 456 kts 194°
2026-04-22 19:11 47.96295 3.90028 33202 ft 455 kts 194°
2026-04-22 19:11 47.90042 3.88664 33204 ft 454 kts 194°
2026-04-22 19:12 47.83786 3.87303 33189 ft 454 kts 194°
2026-04-22 19:12 47.77538 3.85948 33196 ft 453 kts 194°
2026-04-22 19:13 47.71293 3.84597 33192 ft 453 kts 194°
2026-04-22 19:13 47.65045 3.83248 33188 ft 454 kts 194°
2026-04-22 19:14 47.58796 3.81901 33182 ft 454 kts 194°
2026-04-22 19:14 47.52553 3.80558 33186 ft 454 kts 194°
2026-04-22 19:15 47.47360 3.79437 33179 ft 454 kts 194°
2026-04-22 19:15 47.40064 3.77862 33176 ft 453 kts 194°
2026-04-22 19:16 47.33819 3.76518 33179 ft 453 kts 194°
2026-04-22 19:16 47.27588 3.75181 33169 ft 453 kts 194°
2026-04-22 19:17 47.21351 3.73846 33172 ft 452 kts 194°
2026-04-22 19:17 47.15135 3.72519 33166 ft 451 kts 194°
2026-04-22 19:18 47.08926 3.71196 33164 ft 451 kts 194°
2026-04-22 19:18 47.02724 3.69877 33166 ft 450 kts 194°
2026-04-22 19:19 46.96530 3.68563 33166 ft 449 kts 194°
2026-04-22 19:19 46.90341 3.67260 33161 ft 449 kts 194°
2026-04-22 19:20 46.84154 3.65980 33159 ft 449 kts 194°
2026-04-22 19:20 46.77973 3.64702 33160 ft 449 kts 194°
2026-04-22 19:21 46.71787 3.63418 33156 ft 448 kts 195°
2026-04-22 19:21 46.65886 3.61002 33156 ft 438 kts 206°
2026-04-22 19:22 46.60137 3.58073 33164 ft 438 kts 206°
2026-04-22 19:22 46.54363 3.55217 33134 ft 439 kts 205°
2026-04-22 19:23 46.48565 3.52405 33147 ft 439 kts 205°
2026-04-22 19:23 46.42760 3.49619 33128 ft 439 kts 205°
2026-04-22 19:24 46.36995 3.46860 33123 ft 439 kts 205°
2026-04-22 19:24 46.31152 3.44067 33108 ft 439 kts 205°
2026-04-22 19:25 46.25393 3.41317 33102 ft 439 kts 205°
2026-04-22 19:25 46.19598 3.38558 33094 ft 438 kts 205°
2026-04-22 19:26 46.13812 3.35805 33102 ft 437 kts 205°
2026-04-22 19:26 46.08033 3.33058 33104 ft 437 kts 205°
2026-04-22 19:27 46.02264 3.30320 33114 ft 436 kts 205°
2026-04-22 19:27 45.96502 3.27592 33128 ft 436 kts 205°
2026-04-22 19:28 45.90744 3.24872 33129 ft 435 kts 205°
2026-04-22 19:28 45.84996 3.22162 33131 ft 434 kts 205°
2026-04-22 19:29 45.79219 3.19585 33119 ft 439 kts 198°
2026-04-22 19:29 45.76176 3.18976 33125 ft 446 kts 187°
2026-04-22 19:29 45.73074 3.18866 33130 ft 447 kts 186°
2026-04-22 19:30 45.67904 3.18819 33128 ft 447 kts 185°
2026-04-22 19:30 45.60642 3.18734 33127 ft 446 kts 186°
2026-04-22 19:31 45.54440 3.18598 33130 ft 445 kts 186°
2026-04-22 19:31 45.48279 3.18445 33115 ft 436 kts 186°
2026-04-22 19:32 45.42264 3.18296 33126 ft 431 kts 186°
2026-04-22 19:32 45.36253 3.18140 32832 ft 433 kts 186°
2026-04-22 19:32 45.33262 3.18067 32551 ft 426 kts 186°
2026-04-22 19:33 45.30307 3.17995 32156 ft 424 kts 186°
2026-04-22 19:33 45.27373 3.17923 31809 ft 420 kts 186°
2026-04-22 19:33 45.24498 3.17852 31454 ft 417 kts 186°
2026-04-22 19:33 45.21567 3.17779 31078 ft 415 kts 186°
2026-04-22 19:34 45.18686 3.17707 30723 ft 412 kts 186°
2026-04-22 19:34 45.15866 3.17634 30367 ft 410 kts 186°
2026-04-22 19:34 45.13938 3.17587 30111 ft 409 kts 186°
2026-04-22 19:34 45.10189 3.17495 29562 ft 405 kts 186°
2026-04-22 19:35 45.07387 3.17374 29168 ft 401 kts 187°
2026-04-22 19:35 45.04615 3.17213 28797 ft 397 kts 187°
2026-04-22 19:35 45.02754 3.17099 28537 ft 395 kts 187°
2026-04-22 19:35 44.99139 3.16889 28055 ft 391 kts 187°
2026-04-22 19:36 44.97309 3.16788 27797 ft 389 kts 187°
2026-04-22 19:36 44.94615 3.16654 27431 ft 387 kts 186°
2026-04-22 19:36 44.91933 3.16593 27068 ft 384 kts 185°
2026-04-22 19:36 44.89264 3.16566 26702 ft 382 kts 185°
2026-04-22 19:37 44.86620 3.16546 26347 ft 380 kts 185°
2026-04-22 19:37 44.83976 3.16521 25983 ft 378 kts 185°
2026-04-22 19:37 44.81384 3.16492 25634 ft 376 kts 185°
2026-04-22 19:37 44.78778 3.16459 25278 ft 374 kts 185°
2026-04-22 19:38 44.76180 3.16422 24920 ft 372 kts 185°
2026-04-22 19:38 44.73595 3.16385 24569 ft 371 kts 185°
2026-04-22 19:38 44.71020 3.16348 24208 ft 369 kts 185°
2026-04-22 19:38 44.68454 3.16310 23860 ft 368 kts 185°
2026-04-22 19:39 44.65893 3.16273 23448 ft 367 kts 185°
2026-04-22 19:39 44.63343 3.16237 23055 ft 365 kts 185°
2026-04-22 19:39 44.60818 3.16112 22678 ft 360 kts 191°
2026-04-22 19:39 44.59196 3.15733 22431 ft 355 kts 198°
2026-04-22 19:40 44.56012 3.14619 21964 ft 350 kts 199°
2026-04-22 19:40 44.53666 3.13754 21615 ft 348 kts 199°
2026-04-22 19:40 44.51335 3.12895 21269 ft 345 kts 199°
2026-04-22 19:40 44.49016 3.12050 20930 ft 343 kts 199°
2026-04-22 19:41 44.46710 3.11219 20590 ft 341 kts 199°
2026-04-22 19:41 44.44421 3.10400 20258 ft 339 kts 199°
2026-04-22 19:41 44.42139 3.09588 19933 ft 337 kts 199°
2026-04-22 19:41 44.39869 3.08783 19595 ft 336 kts 199°
2026-04-22 19:42 44.37637 3.07993 19263 ft 335 kts 198°
2026-04-22 19:42 44.35379 3.07196 18937 ft 333 kts 198°
2026-04-22 19:42 44.33134 3.06403 18602 ft 333 kts 198°
2026-04-22 19:42 44.30891 3.05612 18244 ft 332 kts 198°
2026-04-22 19:43 44.26433 3.04043 17518 ft 328 kts 198°
2026-04-22 19:43 44.24225 3.03266 17189 ft 327 kts 198°
2026-04-22 19:43 44.22025 3.02493 16850 ft 325 kts 198°
2026-04-22 19:44 44.19839 3.01726 16513 ft 323 kts 198°
2026-04-22 19:44 44.17668 3.00963 16190 ft 321 kts 198°
2026-04-22 19:44 44.15510 3.00206 15864 ft 319 kts 198°
2026-04-22 19:44 44.13365 2.99455 15539 ft 317 kts 198°
2026-04-22 19:45 44.11235 2.98709 15222 ft 315 kts 198°
2026-04-22 19:45 44.09113 2.97965 14908 ft 313 kts 198°
2026-04-22 19:45 44.07001 2.97226 14593 ft 312 kts 198°
2026-04-22 19:45 44.04901 2.96491 14282 ft 311 kts 198°
2026-04-22 19:46 44.02811 2.95759 13972 ft 309 kts 198°
2026-04-22 19:46 44.00731 2.95032 13623 ft 308 kts 198°
2026-04-22 19:46 43.98663 2.94308 13293 ft 306 kts 198°
2026-04-22 19:46 43.96604 2.93589 12965 ft 304 kts 198°
2026-04-22 19:47 43.94571 2.92879 12666 ft 301 kts 198°
2026-04-22 19:47 43.92544 2.92172 12352 ft 299 kts 198°
2026-04-22 19:47 43.90530 2.91470 12052 ft 298 kts 197°
2026-04-22 19:47 43.88520 2.90770 11738 ft 296 kts 198°
2026-04-22 19:48 43.86525 2.90073 11447 ft 295 kts 197°
2026-04-22 19:48 43.84545 2.89383 11158 ft 293 kts 197°
2026-04-22 19:48 43.82571 2.88698 10845 ft 292 kts 197°
2026-04-22 19:48 43.80601 2.88013 10549 ft 291 kts 197°
2026-04-22 19:49 43.78635 2.87332 10241 ft 291 kts 196°
2026-04-22 19:49 43.76609 2.87177 9903 ft 296 kts 172°
2026-04-22 19:49 43.74617 2.87853 9600 ft 292 kts 167°
2026-04-22 19:49 43.72688 2.88600 9276 ft 283 kts 166°
2026-04-22 19:50 43.70819 2.89337 8989 ft 275 kts 166°
2026-04-22 19:50 43.69023 2.90040 8692 ft 268 kts 166°
2026-04-22 19:50 43.67251 2.90729 8422 ft 261 kts 166°
2026-04-22 19:50 43.65521 2.91395 8151 ft 255 kts 166°
2026-04-22 19:51 43.63831 2.92043 7895 ft 251 kts 166°
2026-04-22 19:51 43.62149 2.92684 7656 ft 251 kts 166°
2026-04-22 19:51 43.60461 2.93325 7394 ft 252 kts 166°
2026-04-22 19:51 43.58769 2.93967 7120 ft 253 kts 165°
2026-04-22 19:52 43.57070 2.94610 6854 ft 254 kts 165°
2026-04-22 19:52 43.55366 2.95255 6584 ft 254 kts 165°
2026-04-22 19:52 43.53654 2.95902 6302 ft 256 kts 165°
2026-04-22 19:52 43.51936 2.96552 6016 ft 256 kts 164°
2026-04-22 19:53 43.50223 2.97199 5733 ft 253 kts 164°
2026-04-22 19:53 43.48536 2.97835 5357 ft 250 kts 164°
2026-04-22 19:53 43.46883 2.98459 5104 ft 242 kts 163°
2026-04-22 19:53 43.45304 2.99053 4981 ft 229 kts 163°
2026-04-22 19:54 43.43800 2.99620 4902 ft 220 kts 163°
2026-04-22 19:54 43.42355 3.00165 4826 ft 213 kts 163°
2026-04-22 19:54 43.40928 3.00702 4703 ft 212 kts 163°
2026-04-22 19:54 43.39508 3.01236 4625 ft 211 kts 163°
2026-04-22 19:55 43.38100 3.01765 4519 ft 207 kts 163°
2026-04-22 19:55 43.36731 3.02279 4331 ft 201 kts 163°
2026-04-22 19:55 43.35409 3.02820 4141 ft 197 kts 152°
2026-04-22 19:55 43.34502 3.04102 3941 ft 187 kts 108°
2026-04-22 19:56 43.34249 3.05849 3753 ft 189 kts 101°
2026-04-22 19:56 43.34016 3.07629 3528 ft 188 kts 98°
2026-04-22 19:56 43.33854 3.09404 3293 ft 186 kts 96°
2026-04-22 19:56 43.33731 3.11166 3085 ft 185 kts 96°
2026-04-22 19:57 43.33621 3.12922 2883 ft 184 kts 96°
2026-04-22 19:57 43.33518 3.14662 2671 ft 182 kts 96°
2026-04-22 19:57 43.33420 3.16365 2477 ft 175 kts 96°
2026-04-22 19:57 43.33324 3.18021 2285 ft 173 kts 96°
2026-04-22 19:58 43.33231 3.19643 2109 ft 166 kts 97°
2026-04-22 19:58 43.33141 3.21223 1941 ft 167 kts 97°
2026-04-22 19:58 43.33051 3.22795 1725 ft 162 kts 97°
2026-04-22 19:58 43.32966 3.24293 1511 ft 152 kts 97°
2026-04-22 19:59 43.32886 3.25710 1312 ft 146 kts 97°
2026-04-22 20:00 43.32436 3.33711 203 ft 140 kts 97°
2026-04-22 20:00 43.32365 3.35018 57 ft 134 kts 95°
2026-04-22 20:01 43.32304 3.36010 51 ft 71 kts 94°
2026-04-22 20:01 43.32279 3.36453 50 ft 21 kts 94°
2026-04-22 20:01 43.32266 3.36587 46 ft 7 kts 108°
2026-04-22 20:01 43.32256 3.36652 50 ft 7 kts 90°
2026-04-22 20:02 43.32252 3.36711 50 ft 5 kts 66°
2026-04-22 20:02 43.32270 3.36712 50 ft 2 kts 313°
2026-04-22 20:02 43.32272 3.36673 47 ft 8 kts 271°
2026-04-22 20:02 43.32274 3.36571 50 ft 12 kts 273°
2026-04-22 20:03 43.32280 3.36427 49 ft 18 kts 274°
2026-04-22 20:03 43.32292 3.36225 50 ft 24 kts 274°
2026-04-22 20:03 43.32305 3.35994 51 ft 24 kts 274°
2026-04-22 20:03 43.32316 3.35775 53 ft 23 kts 274°
2026-04-22 20:04 43.32327 3.35562 53 ft 22 kts 274°
2026-04-22 20:04 43.32335 3.35396 49 ft 12 kts 268°
2026-04-22 20:04 43.32286 3.35336 53 ft 10 kts 184°
2026-04-22 20:04 43.32226 3.35330 55 ft 6 kts 186°
2026-04-22 20:05 43.32189 3.35314 51 ft 6 kts 222°
2026-04-22 20:05 43.32179 3.35264 52 ft 6 kts 268°
2026-04-22 20:05 43.32170 3.35221 56 ft 4 kts 232°
2026-04-22 20:05 43.32145 3.35207 54 ft 4 kts 188°
2026-04-22 20:06 43.32130 3.35205 56 ft 0 kts 185°